Time,TemperatureF,DewpointF,PressureIn,WindDirection,WindDirectionDegrees,WindSpeedMPH,WindSpeedGustMPH,Humidity,HourlyPrecipIn,Conditions,Clouds,dailyrainin,SoftwareType,DateUTC
2013-04-22 00:01:00,44.7,33.3,30.59,NE,53,2.0,4.0,64,0.00,,,0.00,Wunderground v.1.15,2013-04-22 04:01:00,
2013-04-22 00:02:00,44.7,33.3,30.59,East,101,2.0,4.0,64,0.00,,,0.00,Wunderground v.1.15,2013-04-22 04:02:00,
2013-04-22 00:04:00,44.7,33.3,30.59,ENE,59,1.0,4.0,64,0.00,,,0.00,Wunderground v.1.15,2013-04-22 04:04:00,
2013-04-22 00:09:00,44.7,34.0,30.60,NE,38,1.0,4.0,66,0.00,,,0.00,Wunderground v.1.15,2013-04-22 04:09:00,
2013-04-22 00:14:00,44.6,34.3,30.60,ENE,65,3.0,5.0,67,0.00,,,0.00,Wunderground v.1.15,2013-04-22 04:14:00,
2013-04-22 00:19:00,44.7,34.8,30.60,ENE,75,3.0,7.0,68,0.00,,,0.00,Wunderground v.1.15,2013-04-22 04:19:00,
2013-04-22 00:25:00,44.6,35.1,30.59,East,95,2.0,7.0,69,0.00,,,0.00,Wunderground v.1.15,2013-04-22 04:25:00,
2013-04-22 00:30:00,44.5,35.0,30.59,East,79,2.0,3.0,69,0.00,,,0.00,Wunderground v.1.15,2013-04-22 04:30:00,
2013-04-22 00:35:00,44.4,35.2,30.59,East,86,1.0,3.0,70,0.00,,,0.00,Wunderground v.1.15,2013-04-22 04:35:00,
2013-04-22 00:41:00,44.2,35.0,30.59,East,101,1.0,3.0,70,0.00,,,0.00,Wunderground v.1.15,2013-04-22 04:41:00,
2013-04-22 00:46:00,44.0,35.2,30.59,East,101,1.0,3.0,71,0.00,,,0.00,Wunderground v.1.15,2013-04-22 04:46:00,
2013-04-22 00:52:00,43.6,35.2,30.59,East,101,0.0,1.0,72,0.00,,,0.00,Wunderground v.1.15,2013-04-22 04:52:00,
2013-04-22 00:58:00,43.6,35.2,30.59,ESE,112,3.0,3.0,72,0.00,,,0.00,Wunderground v.1.15,2013-04-22 04:58:00,
2013-04-22 01:04:00,43.5,35.1,30.59,ENE,67,1.0,2.0,72,0.00,,,0.00,Wunderground v.1.15,2013-04-22 05:04:00,
2013-04-22 01:10:00,43.3,34.9,30.59,ENE,67,2.0,2.0,72,0.00,,,0.00,Wunderground v.1.15,2013-04-22 05:10:00,
2013-04-22 01:16:00,43.0,34.9,30.58,ENE,67,1.0,2.0,73,0.00,,,0.00,Wunderground v.1.15,2013-04-22 05:16:00,
2013-04-22 01:21:00,42.8,34.7,30.58,ENE,65,2.0,2.0,73,0.00,,,0.00,Wunderground v.1.15,2013-04-22 05:21:00,
2013-04-22 01:26:00,42.7,34.6,30.58,ENE,74,2.0,3.0,73,0.00,,,0.00,Wunderground v.1.15,2013-04-22 05:26:00,
2013-04-22 01:31:00,42.7,35.0,30.58,NE,42,0.0,2.0,74,0.00,,,0.00,Wunderground v.1.15,2013-04-22 05:31:00,
2013-04-22 01:36:00,42.7,35.0,30.58,ENE,63,2.0,4.0,74,0.00,,,0.00,Wunderground v.1.15,2013-04-22 05:36:00,
2013-04-22 01:42:00,42.6,35.2,30.58,NE,41,2.0,2.0,75,0.00,,,0.00,Wunderground v.1.15,2013-04-22 05:42:00,
2013-04-22 01:47:00,42.6,35.2,30.58,East,83,1.0,2.0,75,0.00,,,0.00,Wunderground v.1.15,2013-04-22 05:47:00,
2013-04-22 01:53:00,42.4,35.4,30.58,East,98,1.0,2.0,76,0.00,,,0.00,Wunderground v.1.15,2013-04-22 05:53:00,
2013-04-22 01:58:00,42.4,35.4,30.58,East,97,2.0,3.0,76,0.00,,,0.00,Wunderground v.1.15,2013-04-22 05:58:00,
2013-04-22 02:03:00,42.0,35.3,30.58,East,97,0.0,1.0,77,0.00,,,0.00,Wunderground v.1.15,2013-04-22 06:03:00,
2013-04-22 02:08:00,42.0,35.3,30.58,East,97,1.0,2.0,77,0.00,,,0.00,Wunderground v.1.15,2013-04-22 06:08:00,
2013-04-22 02:13:00,41.9,35.2,30.58,ENE,71,1.0,3.0,77,0.00,,,0.00,Wunderground v.1.15,2013-04-22 06:13:00,
2013-04-22 02:18:00,41.9,35.5,30.58,ENE,71,3.0,3.0,78,0.00,,,0.00,Wunderground v.1.15,2013-04-22 06:18:00,
2013-04-22 02:23:00,41.6,35.2,30.58,NE,41,2.0,4.0,78,0.00,,,0.00,Wunderground v.1.15,2013-04-22 06:23:00,
2013-04-22 02:28:00,41.6,35.2,30.58,NE,41,1.0,4.0,78,0.00,,,0.00,Wunderground v.1.15,2013-04-22 06:28:00,
2013-04-22 02:33:00,41.4,35.4,30.58,NE,41,2.0,2.0,79,0.00,,,0.00,Wunderground v.1.15,2013-04-22 06:33:00,
2013-04-22 02:38:00,41.2,35.2,30.58,NE,41,1.0,2.0,79,0.00,,,0.00,Wunderground v.1.15,2013-04-22 06:38:00,
2013-04-22 02:43:00,40.9,35.2,30.58,NE,41,0.0,2.0,80,0.00,,,0.00,Wunderground v.1.15,2013-04-22 06:43:00,
2013-04-22 02:48:00,40.8,35.1,30.58,NE,41,0.0,2.0,80,0.00,,,0.00,Wunderground v.1.15,2013-04-22 06:48:00,
2013-04-22 02:53:00,40.6,35.2,30.58,NE,41,0.0,1.0,81,0.00,,,0.00,Wunderground v.1.15,2013-04-22 06:53:00,
2013-04-22 02:58:00,40.3,34.9,30.58,NE,41,0.0,1.0,81,0.00,,,0.00,Wunderground v.1.15,2013-04-22 06:58:00,
2013-04-22 03:04:00,40.1,35.0,30.58,NE,41,0.0,0.0,82,0.00,,,0.00,Wunderground v.1.15,2013-04-22 07:04:00,
2013-04-22 03:09:00,39.9,35.2,30.58,NE,41,0.0,0.0,83,0.00,,,0.00,Wunderground v.1.15,2013-04-22 07:09:00,
2013-04-22 03:14:00,39.8,35.1,30.58,NE,41,0.0,0.0,83,0.00,,,0.00,Wunderground v.1.15,2013-04-22 07:14:00,
2013-04-22 03:19:00,39.7,35.0,30.58,NE,41,0.0,0.0,83,0.00,,,0.00,Wunderground v.1.15,2013-04-22 07:19:00,
2013-04-22 03:24:00,39.5,35.1,30.58,NE,41,0.0,1.0,84,0.00,,,0.00,Wunderground v.1.15,2013-04-22 07:24:00,
2013-04-22 03:29:00,39.5,35.1,30.58,NE,41,0.0,1.0,84,0.00,,,0.00,Wunderground v.1.15,2013-04-22 07:29:00,
2013-04-22 03:34:00,39.4,35.0,30.58,NE,41,0.0,1.0,84,0.00,,,0.00,Wunderground v.1.15,2013-04-22 07:34:00,
2013-04-22 03:39:00,39.4,35.0,30.58,NE,41,0.0,1.0,84,0.00,,,0.00,Wunderground v.1.15,2013-04-22 07:39:00,
2013-04-22 03:44:00,39.3,34.9,30.57,NE,41,0.0,1.0,84,0.00,,,0.00,Wunderground v.1.15,2013-04-22 07:44:00,
2013-04-22 03:49:00,39.2,34.8,30.57,NE,41,0.0,1.0,84,0.00,,,0.00,Wunderground v.1.15,2013-04-22 07:49:00,
2013-04-22 03:54:00,38.9,34.5,30.57,NE,41,0.0,0.0,84,0.00,,,0.00,Wunderground v.1.15,2013-04-22 07:54:00,
2013-04-22 03:59:00,38.8,34.4,30.57,NE,41,0.0,0.0,84,0.00,,,0.00,Wunderground v.1.15,2013-04-22 07:59:00,
2013-04-22 04:04:00,38.7,34.6,30.57,NE,41,0.0,1.0,85,0.00,,,0.00,Wunderground v.1.15,2013-04-22 08:04:00,
2013-04-22 04:09:00,38.6,34.5,30.56,NE,41,0.0,1.0,85,0.00,,,0.00,Wunderground v.1.15,2013-04-22 08:09:00,
2013-04-22 04:14:00,38.5,34.4,30.57,NE,41,0.0,0.0,85,0.00,,,0.00,Wunderground v.1.15,2013-04-22 08:14:00,
2013-04-22 04:19:00,38.4,34.3,30.57,NE,41,0.0,0.0,85,0.00,,,0.00,Wunderground v.1.15,2013-04-22 08:19:00,
2013-04-22 04:24:00,38.2,34.4,30.57,NE,41,0.0,0.0,86,0.00,,,0.00,Wunderground v.1.15,2013-04-22 08:24:00,
2013-04-22 04:29:00,38.1,34.3,30.57,NE,41,0.0,0.0,86,0.00,,,0.00,Wunderground v.1.15,2013-04-22 08:29:00,
2013-04-22 04:34:00,37.9,34.1,30.57,NE,41,0.0,0.0,86,0.00,,,0.00,Wunderground v.1.15,2013-04-22 08:34:00,
2013-04-22 04:40:00,37.8,34.0,30.57,NE,41,0.0,0.0,86,0.00,,,0.00,Wunderground v.1.15,2013-04-22 08:40:00,
2013-04-22 04:45:00,37.7,34.2,30.57,NE,41,0.0,0.0,87,0.00,,,0.00,Wunderground v.1.15,2013-04-22 08:45:00,
2013-04-22 04:50:00,37.7,34.2,30.57,NE,41,0.0,1.0,87,0.00,,,0.00,Wunderground v.1.15,2013-04-22 08:50:00,
2013-04-22 04:55:00,37.4,33.9,30.56,NE,41,0.0,0.0,87,0.00,,,0.00,Wunderground v.1.15,2013-04-22 08:55:00,
2013-04-22 05:00:00,37.1,33.9,30.57,NE,41,0.0,1.0,88,0.00,,,0.00,Wunderground v.1.15,2013-04-22 09:00:00,
2013-04-22 05:05:00,36.8,33.6,30.56,NE,41,0.0,0.0,88,0.00,,,0.00,Wunderground v.1.15,2013-04-22 09:05:00,
2013-04-22 05:10:00,36.7,33.8,30.56,NE,41,0.0,0.0,89,0.00,,,0.00,Wunderground v.1.15,2013-04-22 09:10:00,
2013-04-22 05:15:00,37.0,34.1,30.56,NE,41,0.0,0.0,89,0.00,,,0.00,Wunderground v.1.15,2013-04-22 09:15:00,
2013-04-22 05:20:00,37.1,33.9,30.56,NE,41,0.0,0.0,88,0.00,,,0.00,Wunderground v.1.15,2013-04-22 09:20:00,
2013-04-22 05:25:00,37.1,33.9,30.56,NE,41,0.0,0.0,88,0.00,,,0.00,Wunderground v.1.15,2013-04-22 09:25:00,
2013-04-22 05:30:00,37.1,33.6,30.56,NE,41,0.0,0.0,87,0.00,,,0.00,Wunderground v.1.15,2013-04-22 09:30:00,
2013-04-22 05:35:00,37.0,33.8,30.56,NE,41,0.0,0.0,88,0.00,,,0.00,Wunderground v.1.15,2013-04-22 09:35:00,
2013-04-22 05:40:00,37.1,33.9,30.56,NE,41,0.0,0.0,88,0.00,,,0.00,Wunderground v.1.15,2013-04-22 09:40:00,
2013-04-22 05:45:00,37.2,33.7,30.56,NE,41,0.0,0.0,87,0.00,,,0.00,Wunderground v.1.15,2013-04-22 09:45:00,
2013-04-22 05:50:00,37.0,33.5,30.57,NE,41,0.0,0.0,87,0.00,,,0.00,Wunderground v.1.15,2013-04-22 09:50:00,
2013-04-22 05:55:00,36.8,33.3,30.56,NE,41,0.0,0.0,87,0.00,,,0.00,Wunderground v.1.15,2013-04-22 09:55:00,
2013-04-22 06:00:00,36.6,33.4,30.56,NE,41,0.0,0.0,88,0.00,,,0.00,Wunderground v.1.15,2013-04-22 10:00:00,
2013-04-22 06:05:00,36.6,33.4,30.56,NE,41,0.0,0.0,88,0.00,,,0.00,Wunderground v.1.15,2013-04-22 10:05:00,
2013-04-22 06:10:00,36.7,33.2,30.56,NE,41,0.0,0.0,87,0.00,,,0.00,Wunderground v.1.15,2013-04-22 10:10:00,
2013-04-22 06:15:00,36.8,33.3,30.56,NE,41,0.0,2.0,87,0.00,,,0.00,Wunderground v.1.15,2013-04-22 10:15:00,
2013-04-22 06:20:00,37.0,33.2,30.56,NE,41,0.0,0.0,86,0.00,,,0.00,Wunderground v.1.15,2013-04-22 10:20:00,
2013-04-22 06:25:00,37.0,33.2,30.57,NE,41,0.0,1.0,86,0.00,,,0.00,Wunderground v.1.15,2013-04-22 10:25:00,
2013-04-22 06:31:00,36.9,33.1,30.56,NE,41,0.0,0.0,86,0.00,,,0.00,Wunderground v.1.15,2013-04-22 10:31:00,
2013-04-22 06:36:00,36.8,33.3,30.56,NE,41,0.0,0.0,87,0.00,,,0.00,Wunderground v.1.15,2013-04-22 10:36:00,
2013-04-22 06:41:00,36.9,33.4,30.56,NE,41,0.0,0.0,87,0.00,,,0.00,Wunderground v.1.15,2013-04-22 10:41:00,
2013-04-22 06:46:00,37.0,33.5,30.57,NE,41,0.0,1.0,87,0.00,,,0.00,Wunderground v.1.15,2013-04-22 10:46:00,
2013-04-22 06:51:00,37.1,33.6,30.57,NE,41,0.0,2.0,87,0.00,,,0.00,Wunderground v.1.15,2013-04-22 10:51:00,
2013-04-22 06:56:00,37.2,33.7,30.57,NE,41,0.0,2.0,87,0.00,,,0.00,Wunderground v.1.15,2013-04-22 10:56:00,
2013-04-22 07:01:00,37.3,33.8,30.57,NNE,17,1.0,2.0,87,0.00,,,0.00,Wunderground v.1.15,2013-04-22 11:01:00,
2013-04-22 07:06:00,37.5,34.0,30.57,NNE,20,0.0,2.0,87,0.00,,,0.00,Wunderground v.1.15,2013-04-22 11:06:00,
2013-04-22 07:11:00,37.7,34.2,30.57,NNE,20,0.0,0.0,87,0.00,,,0.00,Wunderground v.1.15,2013-04-22 11:11:00,
2013-04-22 07:16:00,38.1,34.6,30.57,NNE,20,0.0,1.0,87,0.00,,,0.00,Wunderground v.1.15,2013-04-22 11:16:00,
2013-04-22 07:21:00,38.6,34.8,30.57,NNE,20,1.0,1.0,86,0.00,,,0.00,Wunderground v.1.15,2013-04-22 11:21:00,
2013-04-22 07:26:00,39.0,35.2,30.58,North,8,0.0,3.0,86,0.00,,,0.00,Wunderground v.1.15,2013-04-22 11:26:00,
2013-04-22 07:31:00,39.1,35.0,30.58,ENE,63,0.0,2.0,85,0.00,,,0.00,Wunderground v.1.15,2013-04-22 11:31:00,
2013-04-22 07:36:00,39.1,35.0,30.58,ENE,72,1.0,2.0,85,0.00,,,0.00,Wunderground v.1.15,2013-04-22 11:36:00,
2013-04-22 07:41:00,39.4,35.3,30.58,ENE,72,0.0,1.0,85,0.00,,,0.00,Wunderground v.1.15,2013-04-22 11:41:00,
2013-04-22 07:46:00,39.7,35.3,30.58,East,84,1.0,2.0,84,0.00,,,0.00,Wunderground v.1.15,2013-04-22 11:46:00,
2013-04-22 07:51:00,40.7,36.2,30.57,East,84,0.0,3.0,84,0.00,,,0.00,Wunderground v.1.15,2013-04-22 11:51:00,
2013-04-22 07:57:00,41.1,36.0,30.58,East,84,0.0,3.0,82,0.00,,,0.00,Wunderground v.1.15,2013-04-22 11:57:00,
2013-04-22 08:01:00,41.2,36.1,30.58,East,83,0.0,2.0,82,0.00,,,0.00,Wunderground v.1.15,2013-04-22 12:01:00,
2013-04-22 08:07:00,41.4,36.3,30.58,NNW,340,1.0,4.0,82,0.00,,,0.00,Wunderground v.1.15,2013-04-22 12:07:00,
2013-04-22 08:12:00,41.9,36.8,30.58,North,359,2.0,2.0,82,0.00,,,0.00,Wunderground v.1.15,2013-04-22 12:12:00,
2013-04-22 08:17:00,42.8,37.4,30.58,NNW,330,2.0,3.0,81,0.00,,,0.00,Wunderground v.1.15,2013-04-22 12:17:00,
2013-04-22 08:22:00,42.9,36.8,30.58,ENE,68,5.0,5.0,79,0.00,,,0.00,Wunderground v.1.15,2013-04-22 12:22:00,
2013-04-22 08:27:00,43.3,36.6,30.58,ENE,69,3.0,8.0,77,0.00,,,0.00,Wunderground v.1.15,2013-04-22 12:27:00,
2013-04-22 08:32:00,43.7,37.3,30.58,North,4,1.0,10.0,78,0.00,,,0.00,Wunderground v.1.15,2013-04-22 12:32:00,
2013-04-22 08:37:00,44.1,37.3,30.57,NNE,33,3.0,10.0,77,0.00,,,0.00,Wunderground v.1.15,2013-04-22 12:37:00,
2013-04-22 08:42:00,44.2,37.4,30.57,NE,39,2.0,9.0,77,0.00,,,0.00,Wunderground v.1.15,2013-04-22 12:42:00,
2013-04-22 08:47:00,43.9,36.8,30.57,ENE,68,9.0,13.0,76,0.00,,,0.00,Wunderground v.1.15,2013-04-22 12:47:00,
2013-04-22 08:52:00,44.9,38.1,30.57,NNE,32,5.0,7.0,77,0.00,,,0.00,Wunderground v.1.15,2013-04-22 12:52:00,
2013-04-22 08:57:00,45.5,37.7,30.58,ENE,59,3.0,10.0,74,0.00,,,0.00,Wunderground v.1.15,2013-04-22 12:57:00,
2013-04-22 09:02:00,45.4,37.6,30.58,ENE,76,2.0,11.0,74,0.00,,,0.00,Wunderground v.1.15,2013-04-22 13:02:00,
2013-04-22 09:07:00,45.3,37.2,30.57,East,79,3.0,11.0,73,0.00,,,0.00,Wunderground v.1.15,2013-04-22 13:07:00,
2013-04-22 09:12:00,45.1,36.6,30.57,ENE,65,3.0,7.0,72,0.00,,,0.00,Wunderground v.1.15,2013-04-22 13:12:00,
2013-04-22 09:17:00,45.3,36.8,30.58,NE,35,1.0,7.0,72,0.00,,,0.00,Wunderground v.1.15,2013-04-22 13:17:00,
2013-04-22 09:22:00,45.4,36.5,30.58,East,81,5.0,13.0,71,0.00,,,0.00,Wunderground v.1.15,2013-04-22 13:22:00,
2013-04-22 09:27:00,45.6,36.7,30.58,ENE,77,5.0,14.0,71,0.00,,,0.00,Wunderground v.1.15,2013-04-22 13:27:00,
2013-04-22 09:32:00,45.4,36.5,30.58,East,96,2.0,7.0,71,0.00,,,0.00,Wunderground v.1.15,2013-04-22 13:32:00,
2013-04-22 09:37:00,45.4,36.5,30.58,NNE,33,4.0,14.0,71,0.00,,,0.00,Wunderground v.1.15,2013-04-22 13:37:00,
2013-04-22 09:42:00,45.9,36.7,30.58,NNE,22,4.0,13.0,70,0.00,,,0.00,Wunderground v.1.15,2013-04-22 13:42:00,
2013-04-22 09:47:00,45.8,36.6,30.58,NE,34,4.0,13.0,70,0.00,,,0.00,Wunderground v.1.15,2013-04-22 13:47:00,
2013-04-22 09:52:00,45.8,36.9,30.58,NNE,30,1.0,5.0,71,0.00,,,0.00,Wunderground v.1.15,2013-04-22 13:52:00,
2013-04-22 09:57:00,46.5,36.9,30.57,North,8,3.0,7.0,69,0.00,,,0.00,Wunderground v.1.15,2013-04-22 13:57:00,
2013-04-22 10:03:00,46.7,36.7,30.57,NE,35,5.0,9.0,68,0.00,,,0.00,Wunderground v.1.15,2013-04-22 14:03:00,
2013-04-22 10:08:00,46.3,36.7,30.57,NNE,20,5.0,13.0,69,0.00,,,0.00,Wunderground v.1.15,2013-04-22 14:08:00,
2013-04-22 10:13:00,46.8,36.8,30.57,ENE,72,5.0,8.0,68,0.00,,,0.00,Wunderground v.1.15,2013-04-22 14:13:00,
2013-04-22 10:18:00,47.0,36.6,30.57,NW,319,3.0,10.0,67,0.00,,,0.00,Wunderground v.1.15,2013-04-22 14:18:00,
2013-04-22 10:23:00,47.3,36.1,30.57,ENE,65,10.0,10.0,65,0.00,,,0.00,Wunderground v.1.15,2013-04-22 14:23:00,
2013-04-22 10:28:00,47.6,36.4,30.56,ENE,76,8.0,13.0,65,0.00,,,0.00,Wunderground v.1.15,2013-04-22 14:28:00,
2013-04-22 10:33:00,47.4,36.6,30.56,NE,42,1.0,7.0,66,0.00,,,0.00,Wunderground v.1.15,2013-04-22 14:33:00,
2013-04-22 10:38:00,47.7,36.1,30.56,NNE,24,3.0,13.0,64,0.00,,,0.00,Wunderground v.1.15,2013-04-22 14:38:00,
2013-04-22 10:43:00,47.6,36.4,30.56,ENE,57,1.0,7.0,65,0.00,,,0.00,Wunderground v.1.15,2013-04-22 14:43:00,
2013-04-22 10:48:00,48.7,37.8,30.56,NNE,30,1.0,11.0,66,0.00,,,0.00,Wunderground v.1.15,2013-04-22 14:48:00,
2013-04-22 10:53:00,48.7,37.5,30.56,NE,45,7.0,10.0,65,0.00,,,0.00,Wunderground v.1.15,2013-04-22 14:53:00,
2013-04-22 10:59:00,48.5,36.9,30.56,NNE,24,3.0,10.0,64,0.00,,,0.00,Wunderground v.1.15,2013-04-22 14:59:00,
2013-04-22 11:04:00,48.9,37.3,30.57,ENE,63,1.0,14.0,64,0.00,,,0.00,Wunderground v.1.15,2013-04-22 15:04:00,
2013-04-22 11:09:00,49.2,36.7,30.57,ENE,57,3.0,14.0,62,0.00,,,0.00,Wunderground v.1.15,2013-04-22 15:09:00,
2013-04-22 11:14:00,49.9,37.4,30.56,ENE,65,9.0,11.0,62,0.00,,,0.00,Wunderground v.1.15,2013-04-22 15:14:00,
2013-04-22 11:19:00,49.5,36.2,30.56,NNE,26,2.0,11.0,60,0.00,,,0.00,Wunderground v.1.15,2013-04-22 15:19:00,
2013-04-22 11:24:00,49.7,37.6,30.56,SE,125,1.0,11.0,63,0.00,,,0.00,Wunderground v.1.15,2013-04-22 15:24:00,
2013-04-22 11:29:00,50.3,36.9,30.56,East,82,5.0,11.0,60,0.00,,,0.00,Wunderground v.1.15,2013-04-22 15:29:00,
2013-04-22 11:34:00,50.5,37.1,30.56,NE,46,2.0,10.0,60,0.00,,,0.00,Wunderground v.1.15,2013-04-22 15:34:00,
2013-04-22 11:39:00,50.1,37.2,30.55,North,355,3.0,10.0,61,0.00,,,0.00,Wunderground v.1.15,2013-04-22 15:39:00,
2013-04-22 11:44:00,50.5,37.5,30.55,North,360,2.0,9.0,61,0.00,,,0.00,Wunderground v.1.15,2013-04-22 15:44:00,
2013-04-22 11:49:00,50.1,35.9,30.55,NNW,330,2.0,9.0,58,0.00,,,0.00,Wunderground v.1.15,2013-04-22 15:49:00,
2013-04-22 11:54:00,50.5,36.7,30.55,ESE,123,7.0,8.0,59,0.00,,,0.00,Wunderground v.1.15,2013-04-22 15:54:00,
2013-04-22 11:59:00,51.3,40.3,30.55,NE,38,9.0,10.0,66,0.00,,,0.00,Wunderground v.1.15,2013-04-22 15:59:00,
2013-04-22 12:04:00,51.1,36.8,30.55,NE,44,11.0,13.0,58,0.00,,,0.00,Wunderground v.1.15,2013-04-22 16:04:00,
2013-04-22 12:09:00,50.4,36.6,30.55,ENE,72,7.0,13.0,59,0.00,,,0.00,Wunderground v.1.15,2013-04-22 16:09:00,
2013-04-22 12:14:00,49.7,35.9,30.55,ENE,60,5.0,9.0,59,0.00,,,0.00,Wunderground v.1.15,2013-04-22 16:14:00,
2013-04-22 12:19:00,49.6,35.8,30.55,ENE,57,3.0,11.0,59,0.00,,,0.00,Wunderground v.1.15,2013-04-22 16:19:00,
2013-04-22 12:24:00,50.4,35.7,30.54,ENE,65,6.0,11.0,57,0.00,,,0.00,Wunderground v.1.15,2013-04-22 16:24:00,
2013-04-22 12:29:00,50.1,36.7,30.54,ENE,61,9.0,14.0,60,0.00,,,0.00,Wunderground v.1.15,2013-04-22 16:29:00,
2013-04-22 12:34:00,51.2,37.4,30.54,NE,36,2.0,9.0,59,0.00,,,0.00,Wunderground v.1.15,2013-04-22 16:34:00,
2013-04-22 12:39:00,52.3,40.5,30.53,NNE,21,6.0,9.0,64,0.00,,,0.00,Wunderground v.1.15,2013-04-22 16:39:00,
2013-04-22 12:44:00,51.5,37.2,30.53,NE,53,9.0,9.0,58,0.00,,,0.00,Wunderground v.1.15,2013-04-22 16:44:00,
2013-04-22 12:49:00,51.0,35.8,30.53,NE,36,2.0,9.0,56,0.00,,,0.00,Wunderground v.1.15,2013-04-22 16:49:00,
2013-04-22 12:54:00,51.8,38.3,30.53,SW,227,2.0,10.0,60,0.00,,,0.00,Wunderground v.1.15,2013-04-22 16:54:00,
2013-04-22 12:59:00,52.1,35.5,30.53,East,92,2.0,10.0,53,0.00,,,0.00,Wunderground v.1.15,2013-04-22 16:59:00,
2013-04-22 13:04:00,53.4,38.1,30.53,East,80,10.0,13.0,56,0.00,,,0.00,Wunderground v.1.15,2013-04-22 17:04:00,
2013-04-22 13:09:00,53.0,36.8,30.52,ENE,75,9.0,15.0,54,0.00,,,0.00,Wunderground v.1.15,2013-04-22 17:09:00,
2013-04-22 13:14:00,52.7,37.0,30.52,ENE,76,7.0,15.0,55,0.00,,,0.00,Wunderground v.1.15,2013-04-22 17:14:00,
2013-04-22 13:19:00,52.9,37.2,30.52,SE,144,3.0,15.0,55,0.00,,,0.00,Wunderground v.1.15,2013-04-22 17:19:00,
2013-04-22 13:24:00,53.0,36.3,30.51,ENE,76,7.0,11.0,53,0.00,,,0.00,Wunderground v.1.15,2013-04-22 17:24:00,
2013-04-22 13:29:00,52.4,36.7,30.51,NE,53,10.0,11.0,55,0.00,,,0.00,Wunderground v.1.15,2013-04-22 17:29:00,
2013-04-22 13:34:00,53.5,37.7,30.51,NE,46,5.0,9.0,55,0.00,,,0.00,Wunderground v.1.15,2013-04-22 17:34:00,
2013-04-22 13:39:00,52.9,36.2,30.51,ENE,77,8.0,11.0,53,0.00,,,0.00,Wunderground v.1.15,2013-04-22 17:39:00,
2013-04-22 13:44:00,53.6,36.9,30.51,ENE,66,6.0,10.0,53,0.00,,,0.00,Wunderground v.1.15,2013-04-22 17:44:00,
2013-04-22 13:50:00,54.1,37.3,30.51,ESE,115,8.0,8.0,53,0.00,,,0.00,Wunderground v.1.15,2013-04-22 17:50:00,
2013-04-22 13:55:00,53.4,37.2,30.51,ENE,75,7.0,11.0,54,0.00,,,0.00,Wunderground v.1.15,2013-04-22 17:55:00,
2013-04-22 14:00:00,53.6,36.9,30.51,NNW,344,5.0,5.0,53,0.00,,,0.00,Wunderground v.1.15,2013-04-22 18:00:00,
2013-04-22 14:05:00,52.5,36.3,30.51,ENE,72,2.0,13.0,54,0.00,,,0.00,Wunderground v.1.15,2013-04-22 18:05:00,
2013-04-22 14:10:00,52.6,37.3,30.51,ENE,73,11.0,11.0,56,0.00,,,0.00,Wunderground v.1.15,2013-04-22 18:10:00,
2013-04-22 14:15:00,52.1,36.9,30.51,NE,41,3.0,11.0,56,0.00,,,0.00,Wunderground v.1.15,2013-04-22 18:15:00,
2013-04-22 14:20:00,52.4,36.7,30.50,NE,42,3.0,5.0,55,0.00,,,0.00,Wunderground v.1.15,2013-04-22 18:20:00,
2013-04-22 14:25:00,53.6,39.2,30.50,ESE,107,2.0,16.0,58,0.00,,,0.00,Wunderground v.1.15,2013-04-22 18:25:00,
2013-04-22 14:30:00,54.3,37.5,30.50,ESE,111,7.0,9.0,53,0.00,,,0.00,Wunderground v.1.15,2013-04-22 18:30:00,
2013-04-22 14:35:00,54.5,37.7,30.50,ENE,65,6.0,10.0,53,0.00,,,0.00,Wunderground v.1.15,2013-04-22 18:35:00,
2013-04-22 14:40:00,54.1,37.3,30.49,NE,55,10.0,10.0,53,0.00,,,0.00,Wunderground v.1.15,2013-04-22 18:40:00,
2013-04-22 14:45:00,54.4,37.6,30.49,NE,54,8.0,13.0,53,0.00,,,0.00,Wunderground v.1.15,2013-04-22 18:45:00,
2013-04-22 14:50:00,52.9,36.7,30.49,NE,41,7.0,10.0,54,0.00,,,0.00,Wunderground v.1.15,2013-04-22 18:50:00,
2013-04-22 14:55:00,52.7,36.5,30.49,ESE,117,2.0,13.0,54,0.00,,,0.00,Wunderground v.1.15,2013-04-22 18:55:00,
2013-04-22 15:00:00,53.7,37.9,30.49,East,96,2.0,9.0,55,0.00,,,0.00,Wunderground v.1.15,2013-04-22 19:00:00,
2013-04-22 15:05:00,54.8,38.5,30.48,WSW,248,2.0,12.0,54,0.00,,,0.00,Wunderground v.1.15,2013-04-22 19:05:00,
2013-04-22 15:10:00,54.4,37.1,30.48,ENE,78,10.0,10.0,52,0.00,,,0.00,Wunderground v.1.15,2013-04-22 19:10:00,
2013-04-22 15:15:00,55.3,38.9,30.48,NE,43,3.0,10.0,54,0.00,,,0.00,Wunderground v.1.15,2013-04-22 19:15:00,
2013-04-22 15:20:00,55.1,39.2,30.47,NNE,31,6.0,7.0,55,0.00,,,0.00,Wunderground v.1.15,2013-04-22 19:20:00,
2013-04-22 15:25:00,55.5,37.7,30.47,North,353,8.0,11.0,51,0.00,,,0.00,Wunderground v.1.15,2013-04-22 19:25:00,
2013-04-22 15:30:00,55.9,38.5,30.47,East,90,5.0,5.0,52,0.00,,,0.00,Wunderground v.1.15,2013-04-22 19:30:00,
2013-04-22 15:35:00,54.9,37.1,30.47,NE,56,6.0,10.0,51,0.00,,,0.00,Wunderground v.1.15,2013-04-22 19:35:00,
2013-04-22 15:40:00,55.0,37.7,30.47,NE,47,5.0,5.0,52,0.00,,,0.00,Wunderground v.1.15,2013-04-22 19:40:00,
2013-04-22 15:45:00,54.9,37.6,30.46,East,82,4.0,11.0,52,0.00,,,0.00,Wunderground v.1.15,2013-04-22 19:45:00,
2013-04-22 15:50:00,54.1,37.3,30.46,NE,41,3.0,5.0,53,0.00,,,0.00,Wunderground v.1.15,2013-04-22 19:50:00,
2013-04-22 15:55:00,54.5,38.2,30.45,NNE,30,2.0,8.0,54,0.00,,,0.00,Wunderground v.1.15,2013-04-22 19:55:00,
2013-04-22 16:00:00,54.3,38.0,30.45,East,86,2.0,4.0,54,0.00,,,0.00,Wunderground v.1.15,2013-04-22 20:00:00,
2013-04-22 16:05:00,54.2,37.9,30.45,East,80,2.0,11.0,54,0.00,,,0.00,Wunderground v.1.15,2013-04-22 20:05:00,
2013-04-22 16:10:00,54.1,38.3,30.45,NNW,340,4.0,5.0,55,0.00,,,0.00,Wunderground v.1.15,2013-04-22 20:10:00,
2013-04-22 16:15:00,54.3,37.5,30.45,ESE,105,4.0,13.0,53,0.00,,,0.00,Wunderground v.1.15,2013-04-22 20:15:00,
2013-04-22 16:20:00,54.5,37.7,30.45,East,94,4.0,8.0,53,0.00,,,0.00,Wunderground v.1.15,2013-04-22 20:20:00,
2013-04-22 16:25:00,54.5,37.7,30.44,NE,43,2.0,13.0,53,0.00,,,0.00,Wunderground v.1.15,2013-04-22 20:25:00,
2013-04-22 16:31:00,54.6,36.8,30.44,NE,55,5.0,9.0,51,0.00,,,0.00,Wunderground v.1.15,2013-04-22 20:31:00,
2013-04-22 16:36:00,54.9,38.1,30.44,ENE,71,6.0,14.0,53,0.00,,,0.00,Wunderground v.1.15,2013-04-22 20:36:00,
2013-04-22 16:41:00,54.9,37.1,30.44,East,82,4.0,11.0,51,0.00,,,0.00,Wunderground v.1.15,2013-04-22 20:41:00,
2013-04-22 16:46:00,55.1,37.8,30.44,NE,46,3.0,11.0,52,0.00,,,0.00,Wunderground v.1.15,2013-04-22 20:46:00,
2013-04-22 16:51:00,55.5,39.1,30.44,NNW,340,2.0,4.0,54,0.00,,,0.00,Wunderground v.1.15,2013-04-22 20:51:00,
2013-04-22 16:56:00,55.4,38.1,30.44,ENE,68,6.0,13.0,52,0.00,,,0.00,Wunderground v.1.15,2013-04-22 20:56:00,
2013-04-22 17:01:00,55.1,38.3,30.44,NE,53,7.0,10.0,53,0.00,,,0.00,Wunderground v.1.15,2013-04-22 21:01:00,
2013-04-22 17:06:00,54.9,38.1,30.44,NNE,26,1.0,10.0,53,0.00,,,0.00,Wunderground v.1.15,2013-04-22 21:06:00,
2013-04-22 17:11:00,55.3,38.0,30.44,NE,53,3.0,9.0,52,0.00,,,0.00,Wunderground v.1.15,2013-04-22 21:11:00,
2013-04-22 17:16:00,55.9,39.0,30.44,East,83,7.0,10.0,53,0.00,,,0.00,Wunderground v.1.15,2013-04-22 21:16:00,
2013-04-22 17:21:00,55.5,37.7,30.44,East,79,7.0,7.0,51,0.00,,,0.00,Wunderground v.1.15,2013-04-22 21:21:00,
2013-04-22 17:26:00,54.1,36.9,30.44,NE,35,2.0,14.0,52,0.00,,,0.00,Wunderground v.1.15,2013-04-22 21:26:00,
2013-04-22 17:31:00,54.2,36.9,30.43,ENE,77,2.0,5.0,52,0.00,,,0.00,Wunderground v.1.15,2013-04-22 21:31:00,
2013-04-22 17:36:00,54.6,37.8,30.43,SE,125,4.0,10.0,53,0.00,,,0.00,Wunderground v.1.15,2013-04-22 21:36:00,
2013-04-22 17:41:00,54.8,38.5,30.43,NE,47,8.0,8.0,54,0.00,,,0.00,Wunderground v.1.15,2013-04-22 21:41:00,
2013-04-22 17:46:00,55.5,39.1,30.43,NNE,24,6.0,9.0,54,0.00,,,0.00,Wunderground v.1.15,2013-04-22 21:46:00,
2013-04-22 17:51:00,54.4,38.1,30.44,ENE,64,5.0,6.0,54,0.00,,,0.00,Wunderground v.1.15,2013-04-22 21:51:00,
2013-04-22 17:56:00,53.8,37.5,30.44,East,97,9.0,13.0,54,0.00,,,0.00,Wunderground v.1.15,2013-04-22 21:56:00,
2013-04-22 18:01:00,53.3,37.1,30.43,ENE,57,5.0,5.0,54,0.00,,,0.00,Wunderground v.1.15,2013-04-22 22:01:00,